📊 Raw Sensor Data

Showing records 50051 to 50075 of 85,128 total

ID Distance (ft) Battery V Battery A Int Temp (°F) Int Humid (%) Ext Temp (°F) Solar V RSSI SNR Time Stamp
35090 15.1 4.01 -5 49 40 50 0.00 -80 7 03/15/2025 09:30 PM
35089 -- 4.06 -5 49 40 50 0.10 -80 7 03/15/2025 09:15 PM
35088 -- 4.01 -5 49 40 51 0.00 -81 8 03/15/2025 09:00 PM
35087 -- 4.01 -35 50 40 51 0.00 -81 7 03/15/2025 08:45 PM
35086 -- 4.01 -5 49 41 52 0.00 -79 8 03/15/2025 08:30 PM
35085 -- 4.07 -5 49 42 50 0.10 -81 8 03/15/2025 08:15 PM
35084 -- 4.01 -5 49 42 49 0.00 -81 8 03/15/2025 08:00 PM
35083 -- 4.07 -5 51 42 51 0.10 -80 8 03/15/2025 07:45 PM
35082 -- 4.02 -5 52 42 53 0.50 -80 8 03/15/2025 07:30 PM
35081 -- 4.01 -10 53 43 52 3.30 -80 8 03/15/2025 07:15 PM
35080 -- 4.09 0 55 42 54 4.50 -81 8 03/15/2025 07:00 PM
35079 -- 4.11 0 57 42 56 4.50 -81 8 03/15/2025 06:45 PM
35078 -- 4.07 14 58 41 57 4.50 -81 7 03/15/2025 06:30 PM
35077 -- 4.18 30 59 41 59 4.50 -81 7 03/15/2025 06:00 PM
35076 -- 4.09 22 59 42 58 4.50 -81 7 03/15/2025 05:45 PM
35075 -- 4.09 33 59 42 59 4.50 -81 8 03/15/2025 05:30 PM
35074 -- 4.11 25 60 41 59 4.50 -81 8 03/15/2025 05:15 PM
35073 -- 4.12 46 60 42 59 4.50 -81 8 03/15/2025 05:00 PM
35072 -- 4.11 0 61 42 59 5.10 -80 8 03/15/2025 04:45 PM
35071 -- 4.04 0 61 42 59 5.10 -79 9 03/15/2025 04:30 PM
35070 -- 4.04 0 62 42 60 5.10 -80 8 03/15/2025 04:15 PM
35069 -- 4.04 0 63 41 61 5.10 -79 8 03/15/2025 04:00 PM
35068 -- 4.09 0 63 42 61 5.10 -80 8 03/15/2025 03:45 PM
35067 -- 4.04 0 63 42 61 5.10 -80 7 03/15/2025 03:30 PM
35066 -- 4.04 0 64 42 61 5.10 -81 8 03/15/2025 03:15 PM